User: anonymous   Login
Location: Newark
(40.9833°N, 0.0333°W)
Time: 19:58:56
(UTC+00:00)
Language:

Transit 2A - Orbit

View from above orbital plane
View from above orbital plane
View from above satellite
View from above satellite

Ground track
Ground track

The orbit data is extracted from the following two-line orbital elements,

1    45U 60007A   20301.71101416 -.00000023 +00000-0 +21209-4 0  9993
2    45 066.6965 032.3457 0260466 220.5899 137.5527 14.33692149141662
Epoch (UTC): 27 October 2020 17:03:51
Eccentricity: 0.0260466
inclination: 66.6965°
perigee height: 593 km
apogee height: 966 km
right ascension of ascending node: 32.3457°
argument of perigee: 220.5899°
revolutions per day: 14.33692149
mean anomaly at epoch: 137.5527°
orbit number at epoch: 14166

The dashed part of the orbit path shows where the satellite is in the earth's shadow,  

DLR